Location: Holyhead Bay
(53.3667°N, 4.6667°W)
Time: 19:53:51
(UTC+00:00)

Cosmos 1980 - Pass Details

Date: 24 November 2020
Orbit: 840 x 846 km, 71.0° (Epoch: 16 January)

Event Time Altitude Azimuth Distance (km) Brightness Sun altitude
Rises 18:01:00 0° 202° (SSW) 3,395 7.4 -15.8°
Reaches altitude 10° 18:03:26 10° 201° (SSW) 2,464 6.6 -16.2°
Maximum altitude 18:09:04 73° 118° (ESE) 887 3.6 -17.0°
Enters shadow 18:13:11 19° 36° (NE) 1,898 5.1 -17.6°
